{"data":{"norad_id":52878,"intl_designator":"2022-062BA","name":"STARLINK-4171","alt_names":[],"object_type":"PAYLOAD","status":"ACTIVE","operator":null,"country":"US","launch_date":"2022-06-17","launch_site_code":"AFETR","launch_vehicle":null,"mission":null,"orbit_class":"UNKNOWN","rcs_meters":null,"size_class":null,"mass_kg":null,"dimensions":null,"purposes":["comms"],"wikipedia_slug":null,"has_3d_model":false,"image_url":null,"decayed_at":null,"tle_current":{"epoch":"2026-05-25T01:21:50.016096Z","epoch_age_seconds":66644,"freshness":"FRESH","line1":"1 52878U 22062BA  26145.05682889 -.00000391  00000+0 -64820-5 0  9995","line2":"2 52878  53.2125  31.2941 0001273  73.9606 286.1526 15.08845594217597","mean_motion":15.08845594,"eccentricity":0.0001273,"inclination_deg":53.2125,"raan_deg":31.2941,"arg_perigee_deg":73.9606,"mean_anomaly_deg":286.1526,"bstar":-6.482e-6,"rev_number":21759,"period_min":95.437200845881,"perigee_km":538.84564639998,"apogee_km":540.60693439371,"semimajor_km":6917.8632903968,"source":"CELESTRAK","updated_at":"2026-05-25T13:38:17.270948Z"}}}